SPACEBEENZ-4 (46939 NORAD) Tracking and Keplerian Element Data

This shows tracking and keplerian element data for the satellite.

Feedback or suggestion? Click here.




ElementValue
Catalog46939
NameSPACEBEENZ-4
Epoch Orbit935
Epoch Day20.63081377
Epoch Year2021
RAAN159.9865
Inclination97.374
Eccentricity0.0017654
Argument of Perigee84.1688
Mean Anonmoly276.1582
Mean Motion15.21384102
Decay Rate2.222E-05
L11 46939U 20085L 21020.63081377 .00002222 00000-0 10181-3 0 9998
L22 46939 97.3740 159.9865 0017654 84.1688 276.1582 15.21384102 9359

Live tracking and technical data element details for SPACEBEENZ-4 (NORAD 46939). SPACEBEENZ-4 can be tracked NOW for your location showing map with azimuth and elevation plus other details from your city location.

Track the satellite on the map from your city or location and see movement details for azimuth, elevation, latitude, longitude, range, height, and movement on the map or in text.







IsCatalogInMostPopularTable: catalog: 46939, numindb: 20
Update: records affected: 1



GetName: 46939 SPACEBEENZ-4

Hit Count: updated at: Fri, 22 Jan 2021 18:34:47 GMT